Grub im Wienerwald
Wetterdaten: aktuell Freitag, 25.05.2018 01:27
Datum Zeit Temp. A. Feuchte A. Luftdruck Regen Wind Richtung Richtung Sonnenschein UV Solar Taupunkt Windchill Windben
25.05.2018 01:27 15,3 C 96 % 1016,4 hPa 0,0 l/m 0,0 km/h NW 306 0 min 0,0 UV-I 0 W/m 14,7 C 15,3 C 0,0 km/h
25.05.2018 01:24 15,3 C 96 % 1016,4 hPa 0,0 l/m 0,0 km/h NW 306 0 min 0,0 UV-I 0 W/m 14,7 C 15,3 C 0,0 km/h
25.05.2018 01:21 15,3 C 96 % 1016,3 hPa 0,0 l/m 0,4 km/h NW 306 0 min 0,0 UV-I 0 W/m 14,7 C 15,3 C 4,8 km/h
25.05.2018 01:18 15,4 C 96 % 1016,3 hPa 0,0 l/m 0,3 km/h NW 306 0 min 0,0 UV-I 0 W/m 14,8 C 15,4 C 4,8 km/h
25.05.2018 01:15 15,4 C 96 % 1016,4 hPa 0,0 l/m 0,0 km/h NW 306 0 min 0,0 UV-I 0 W/m 14,8 C 15,4 C 0,0 km/h
25.05.2018 01:12 15,4 C 96 % 1016,4 hPa 0,0 l/m 0,0 km/h NW 306 0 min 0,0 UV-I 0 W/m 14,8 C 15,4 C 1,6 km/h
25.05.2018 01:09 15,4 C 96 % 1016,4 hPa 0,0 l/m 0,1 km/h NW 306 0 min 0,0 UV-I 0 W/m 14,8 C 15,4 C 1,6 km/h
25.05.2018 01:06 15,4 C 96 % 1016,4 hPa 0,0 l/m 1,2 km/h NW 306 0 min 0,0 UV-I 0 W/m 14,8 C 15,4 C 4,8 km/h
25.05.2018 01:03 15,4 C 96 % 1016,4 hPa 0,0 l/m 0,0 km/h NW 306 0 min 0,0 UV-I 0 W/m 14,8 C 15,4 C 1,6 km/h
25.05.2018 01:00 15,4 C 96 % 1016,4 hPa 0,0 l/m 0,4 km/h NW 306 0 min 0,0 UV-I 0 W/m 14,8 C 15,4 C 3,2 km/h
25.05.2018 00:57 15,5 C 96 % 1016,4 hPa 0,0 l/m 0,0 km/h NW 306 0 min 0,0 UV-I 0 W/m 14,9 C 15,5 C 1,6 km/h
25.05.2018 00:54 15,5 C 96 % 1016,4 hPa 0,0 l/m 0,1 km/h NW 306 0 min 0,0 UV-I 0 W/m 14,9 C 15,5 C 1,6 km/h
25.05.2018 00:51 15,6 C 95 % 1016,4 hPa 0,0 l/m 0,0 km/h NW 306 0 min 0,0 UV-I 0 W/m 14,8 C 15,6 C 0,0 km/h
25.05.2018 00:48 15,6 C 95 % 1016,3 hPa 0,0 l/m 0,0 km/h NW 306 0 min 0,0 UV-I 0 W/m 14,8 C 15,6 C 0,0 km/h
25.05.2018 00:45 15,6 C 96 % 1016,3 hPa 0,0 l/m 0,0 km/h NW 306 0 min 0,0 UV-I 0 W/m 15,0 C 15,6 C 0,0 km/h
25.05.2018 00:42 15,7 C 96 % 1016,3 hPa 0,0 l/m 0,0 km/h NW 306 0 min 0,0 UV-I 0 W/m 15,1 C 15,7 C 0,0 km/h
25.05.2018 00:39 15,7 C 96 % 1016,3 hPa 0,0 l/m 0,0 km/h NW 306 0 min 0,0 UV-I 0 W/m 15,1 C 15,7 C 1,6 km/h
25.05.2018 00:36 15,7 C 96 % 1016,3 hPa 0,0 l/m 0,0 km/h NW 306 0 min 0,0 UV-I 0 W/m 15,1 C 15,7 C 1,6 km/h
25.05.2018 00:33 15,7 C 96 % 1016,3 hPa 0,0 l/m 0,0 km/h NW 306 0 min 0,0 UV-I 0 W/m 15,1 C 15,7 C 1,6 km/h
25.05.2018 00:30 15,8 C 96 % 1016,3 hPa 0,0 l/m 0,0 km/h NW 306 0 min 0,0 UV-I 0 W/m 15,2 C 15,8 C 0,0 km/h
25.05.2018 00:27 15,8 C 95 % 1016,3 hPa 0,0 l/m 0,0 km/h NW 306 0 min 0,0 UV-I 0 W/m 15,0 C 15,8 C 0,0 km/h
25.05.2018 00:24 15,9 C 95 % 1016,3 hPa 0,0 l/m 0,3 km/h NW 306 0 min 0,0 UV-I 0 W/m 15,1 C 15,9 C 1,6 km/h
25.05.2018 00:21 15,9 C 95 % 1016,4 hPa 0,0 l/m 0,4 km/h NW 306 0 min 0,0 UV-I 0 W/m 15,1 C 15,9 C 1,6 km/h
25.05.2018 00:18 15,9 C 95 % 1016,4 hPa 0,0 l/m 0,0 km/h NW 306 0 min 0,0 UV-I 0 W/m 15,1 C 15,9 C 0,0 km/h
25.05.2018 00:15 16,0 C 96 % 1016,4 hPa 0,0 l/m 0,0 km/h NW 306 0 min 0,0 UV-I 0 W/m 15,4 C 16,0 C 0,0 km/h
25.05.2018 00:12 16,1 C 96 % 1016,5 hPa 0,0 l/m 0,0 km/h NW 306 0 min 0,0 UV-I 0 W/m 15,5 C 16,1 C 0,0 km/h
25.05.2018 00:09 16,1 C 96 % 1016,4 hPa 0,0 l/m 1,0 km/h NW 306 0 min 0,0 UV-I 0 W/m 15,5 C 16,1 C 4,8 km/h
25.05.2018 00:06 16,1 C 96 % 1016,4 hPa 0,0 l/m 0,0 km/h NW 306 0 min 0,0 UV-I 0 W/m 15,5 C 16,1 C 0,0 km/h
25.05.2018 00:03 16,2 C 96 % 1016,4 hPa 0,0 l/m 0,0 km/h NW 306 0 min 0,0 UV-I 0 W/m 15,6 C 16,2 C 0,0 km/h
25.05.2018 00:00 16,2 C 96 % 1016,4 hPa 0,0 l/m 0,0 km/h NW 306 0 min 0,0 UV-I 0 W/m 15,6 C 16,2 C 1,6 km/h
24.05.2018 23:57 16,2 C 96 % 1016,4 hPa 0,0 l/m 0,0 km/h NW 306 0 min 0,0 UV-I 0 W/m 15,6 C 16,2 C 1,6 km/h
24.05.2018 23:54 16,2 C 96 % 1016,4 hPa 0,0 l/m 0,0 km/h NW 306 0 min 0,0 UV-I 0 W/m 15,6 C 16,2 C 0,0 km/h
24.05.2018 23:51 16,3 C 96 % 1016,4 hPa 0,0 l/m 0,0 km/h NW 306 0 min 0,0 UV-I 0 W/m 15,7 C 16,3 C 0,0 km/h
24.05.2018 23:48 16,3 C 96 % 1016,5 hPa 0,0 l/m 0,0 km/h NW 306 0 min 0,0 UV-I 0 W/m 15,7 C 16,3 C 0,0 km/h
24.05.2018 23:45 16,3 C 96 % 1016,5 hPa 0,0 l/m 0,0 km/h NW 306 0 min 0,0 UV-I 0 W/m 15,7 C 16,3 C 0,0 km/h
24.05.2018 23:42 16,3 C 96 % 1016,6 hPa 0,0 l/m 0,0 km/h NW 306 0 min 0,0 UV-I 0 W/m 15,7 C 16,3 C 0,0 km/h
24.05.2018 23:39 16,3 C 96 % 1016,5 hPa 0,0 l/m 0,0 km/h NW 306 0 min 0,0 UV-I 0 W/m 15,7 C 16,3 C 0,0 km/h
24.05.2018 23:36 16,3 C 96 % 1016,5 hPa 0,0 l/m 0,0 km/h NW 306 0 min 0,0 UV-I 0 W/m 15,7 C 16,3 C 0,0 km/h
24.05.2018 23:33 16,3 C 96 % 1016,4 hPa 0,2 l/m 0,0 km/h NW 306 0 min 0,0 UV-I 0 W/m 15,7 C 16,3 C 0,0 km/h
24.05.2018 23:30 16,3 C 96 % 1016,4 hPa 0,0 l/m 0,0 km/h NW 306 0 min 0,0 UV-I 0 W/m 15,7 C 16,3 C 0,0 km/h
24.05.2018 23:27 16,4 C 96 % 1016,3 hPa 0,0 l/m 0,1 km/h NW 306 0 min 0,0 UV-I 0 W/m 15,8 C 16,4 C 1,6 km/h
24.05.2018 23:24 16,4 C 96 % 1016,3 hPa 0,0 l/m 0,0 km/h NW 306 0 min 0,0 UV-I 0 W/m 15,8 C 16,4 C 0,0 km/h
24.05.2018 23:21 16,4 C 96 % 1016,4 hPa 0,0 l/m 0,0 km/h NW 306 0 min 0,0 UV-I 0 W/m 15,8 C 16,4 C 1,6 km/h
24.05.2018 23:18 16,4 C 96 % 1016,4 hPa 0,0 l/m 0,0 km/h NW 306 0 min 0,0 UV-I 0 W/m 15,8 C 16,4 C 0,0 km/h
24.05.2018 23:15 16,4 C 96 % 1016,4 hPa 0,0 l/m 0,5 km/h NW 306 0 min 0,0 UV-I 0 W/m 15,8 C 16,4 C 3,2 km/h
24.05.2018 23:12 16,4 C 96 % 1016,4 hPa 0,0 l/m 2,4 km/h NW 306 0 min 0,0 UV-I 0 W/m 15,8 C 16,4 C 4,8 km/h
24.05.2018 23:09 16,4 C 95 % 1016,4 hPa 0,0 l/m 0,1 km/h NW 306 0 min 0,0 UV-I 0 W/m 15,6 C 16,4 C 1,6 km/h
24.05.2018 23:06 16,4 C 95 % 1016,4 hPa 0,0 l/m 0,6 km/h NW 306 0 min 0,0 UV-I 0 W/m 15,6 C 16,4 C 3,2 km/h
24.05.2018 23:03 16,4 C 95 % 1016,3 hPa 0,0 l/m 0,1 km/h NW 306 0 min 0,0 UV-I 0 W/m 15,6 C 16,4 C 1,6 km/h
24.05.2018 23:00 16,4 C 95 % 1016,3 hPa 0,0 l/m 0,5 km/h NW 306 0 min 0,0 UV-I 0 W/m 15,6 C 16,4 C 4,8 km/h
24.05.2018 22:57 16,4 C 95 % 1016,3 hPa 0,0 l/m 0,8 km/h NW 306 0 min 0,0 UV-I 0 W/m 15,6 C 16,4 C 4,8 km/h
24.05.2018 22:54 16,4 C 95 % 1016,3 hPa 0,0 l/m 0,0 km/h NW 306 0 min 0,0 UV-I 0 W/m 15,6 C 16,4 C 1,6 km/h
24.05.2018 22:51 16,4 C 95 % 1016,3 hPa 0,0 l/m 0,0 km/h NW 306 0 min 0,0 UV-I 0 W/m 15,6 C 16,4 C 1,6 km/h
24.05.2018 22:48 16,4 C 95 % 1016,3 hPa 0,0 l/m 3,1 km/h NW 306 0 min 0,0 UV-I 0 W/m 15,6 C 16,4 C 8,0 km/h
24.05.2018 22:45 16,4 C 95 % 1016,3 hPa 0,2 l/m 2,5 km/h NW 306 0 min 0,0 UV-I 0 W/m 15,6 C 16,4 C 4,8 km/h
24.05.2018 22:42 16,4 C 95 % 1016,3 hPa 0,2 l/m 4,3 km/h NW 306 0 min 0,0 UV-I 0 W/m 15,6 C 16,4 C 8,0 km/h
24.05.2018 22:39 16,4 C 95 % 1016,3 hPa 0,0 l/m 4,9 km/h W-NW 296 0 min 0,0 UV-I 0 W/m 15,6 C 16,4 C 8,0 km/h
24.05.2018 22:36 16,4 C 95 % 1016,3 hPa 0,2 l/m 3,3 km/h W-NW 296 0 min 0,0 UV-I 0 W/m 15,6 C 16,4 C 4,8 km/h
24.05.2018 22:33 16,4 C 95 % 1016,3 hPa 0,0 l/m 0,7 km/h W-NW 296 0 min 0,0 UV-I 0 W/m 15,6 C 16,4 C 1,6 km/h
24.05.2018 22:30 16,5 C 95 % 1016,4 hPa 0,0 l/m 0,0 km/h W-NW 296 0 min 0,0 UV-I 0 W/m 15,7 C 16,5 C 1,6 km/h
24.05.2018 22:27 16,5 C 95 % 1016,4 hPa 0,0 l/m 0,0 km/h W-NW 296 0 min 0,0 UV-I 0 W/m 15,7 C 16,5 C 0,0 km/h
24.05.2018 22:24 16,6 C 95 % 1016,4 hPa 0,0 l/m 0,0 km/h W-NW 296 0 min 0,0 UV-I 0 W/m 15,8 C 16,6 C 0,0 km/h
24.05.2018 22:21 16,6 C 95 % 1016,4 hPa 0,0 l/m 0,6 km/h W-NW 296 0 min 0,0 UV-I 0 W/m 15,8 C 16,6 C 3,2 km/h
24.05.2018 22:18 16,6 C 94 % 1016,5 hPa 0,0 l/m 1,4 km/h W-NW 296 0 min 0,0 UV-I 0 W/m 15,6 C 16,6 C 3,2 km/h
24.05.2018 22:15 16,6 C 95 % 1016,4 hPa 0,0 l/m 0,2 km/h W-NW 296 0 min 0,0 UV-I 0 W/m 15,8 C 16,6 C 1,6 km/h
24.05.2018 22:12 16,6 C 95 % 1016,4 hPa 0,0 l/m 0,0 km/h W-NW 296 0 min 0,0 UV-I 0 W/m 15,8 C 16,6 C 0,0 km/h
24.05.2018 22:09 16,6 C 94 % 1016,5 hPa 0,0 l/m 0,0 km/h W-NW 296 0 min 0,0 UV-I 0 W/m 15,6 C 16,6 C 0,0 km/h
24.05.2018 22:06 16,7 C 94 % 1016,6 hPa 0,0 l/m 0,0 km/h W-NW 296 0 min 0,0 UV-I 0 W/m 15,7 C 16,7 C 0,0 km/h
24.05.2018 22:03 16,7 C 94 % 1016,6 hPa 0,0 l/m 0,0 km/h W-NW 296 0 min 0,0 UV-I 0 W/m 15,7 C 16,7 C 0,0 km/h
24.05.2018 22:00 16,7 C 94 % 1016,5 hPa 0,0 l/m 0,0 km/h W-NW 296 0 min 0,0 UV-I 0 W/m 15,7 C 16,7 C 0,0 km/h
24.05.2018 21:57 16,8 C 94 % 1016,6 hPa 0,0 l/m 0,0 km/h W-NW 296 0 min 0,0 UV-I 0 W/m 15,8 C 16,8 C 1,6 km/h
24.05.2018 21:54 16,8 C 94 % 1016,6 hPa 0,0 l/m 0,0 km/h W-NW 296 0 min 0,0 UV-I 0 W/m 15,8 C 16,8 C 0,0 km/h
24.05.2018 21:51 16,8 C 94 % 1016,6 hPa 0,0 l/m 0,0 km/h W-NW 296 0 min 0,0 UV-I 0 W/m 15,8 C 16,8 C 0,0 km/h
24.05.2018 21:48 16,8 C 94 % 1016,6 hPa 0,0 l/m 0,3 km/h W-NW 296 0 min 0,0 UV-I 0 W/m 15,8 C 16,8 C 1,6 km/h
24.05.2018 21:45 16,9 C 94 % 1016,6 hPa 0,0 l/m 1,5 km/h W-NW 296 0 min 0,0 UV-I 0 W/m 15,9 C 16,9 C 3,2 km/h
24.05.2018 21:42 16,9 C 94 % 1016,4 hPa 0,0 l/m 1,0 km/h W-NW 296 0 min 0,0 UV-I 0 W/m 15,9 C 16,9 C 6,4 km/h
24.05.2018 21:39 17,0 C 94 % 1016,5 hPa 0,0 l/m 2,1 km/h W-NW 296 0 min 0,0 UV-I 0 W/m 16,0 C 17,0 C 6,4 km/h
24.05.2018 21:36 17,0 C 94 % 1016,6 hPa 0,0 l/m 0,0 km/h W-NW 296 0 min 0,0 UV-I 0 W/m 16,0 C 17,0 C 0,0 km/h
24.05.2018 21:33 17,1 C 94 % 1016,6 hPa 0,0 l/m 0,0 km/h W-NW 296 0 min 0,0 UV-I 0 W/m 16,1 C 17,1 C 0,0 km/h
24.05.2018 21:30 17,1 C 94 % 1016,6 hPa 0,0 l/m 0,0 km/h W-NW 296 0 min 0,0 UV-I 0 W/m 16,1 C 17,1 C 1,6 km/h
24.05.2018 21:27 17,1 C 94 % 1016,6 hPa 0,0 l/m 0,0 km/h W-NW 296 0 min 0,0 UV-I 0 W/m 16,1 C 17,1 C 0,0 km/h
24.05.2018 21:24 17,2 C 94 % 1016,4 hPa 0,0 l/m 0,0 km/h W-NW 296 0 min 0,0 UV-I 0 W/m 16,2 C 17,2 C 0,0 km/h
24.05.2018 21:21 17,2 C 93 % 1016,4 hPa 0,0 l/m 0,0 km/h W-NW 296 0 min 0,0 UV-I 0 W/m 16,1 C 17,2 C 0,0 km/h
24.05.2018 21:18 17,2 C 93 % 1016,3 hPa 0,0 l/m 0,0 km/h W-NW 296 0 min 0,0 UV-I 0 W/m 16,1 C 17,2 C 1,6 km/h
24.05.2018 21:15 17,3 C 93 % 1016,2 hPa 0,0 l/m 0,1 km/h W-NW 296 0 min 0,0 UV-I 0 W/m 16,2 C 17,3 C 1,6 km/h
24.05.2018 21:12 17,3 C 93 % 1016,1 hPa 0,0 l/m 0,0 km/h W-NW 296 0 min 0,0 UV-I 0 W/m 16,2 C 17,3 C 0,0 km/h
24.05.2018 21:09 17,3 C 93 % 1016,1 hPa 0,0 l/m 0,0 km/h W-NW 296 0 min 0,0 UV-I 0 W/m 16,2 C 17,3 C 0,0 km/h
24.05.2018 21:06 17,4 C 93 % 1016,1 hPa 0,0 l/m 0,0 km/h W-NW 296 0 min 0,0 UV-I 0 W/m 16,3 C 17,4 C 0,0 km/h
24.05.2018 21:03 17,4 C 93 % 1016,1 hPa 0,0 l/m 0,0 km/h W-NW 296 0 min 0,0 UV-I 0 W/m 16,3 C 17,4 C 0,0 km/h
24.05.2018 21:00 17,5 C 93 % 1016,1 hPa 0,0 l/m 0,0 km/h W-NW 296 0 min 0,0 UV-I 0 W/m 16,4 C 17,5 C 0,0 km/h
24.05.2018 20:57 17,6 C 93 % 1016,0 hPa 0,0 l/m 0,0 km/h W-NW 296 0 min 0,0 UV-I 0 W/m 16,5 C 17,6 C 0,0 km/h
_ Min-Zeit 05:00 12:18 18:03 - 02:00 - - - - - 05:00 05:00 02:00
Minimum _ 12,6 C 65 % 1015,2 hPa - 0,0 km/h - - - - - 11,5 C 12,6 C 0,0 km/h
_ Max-Zeit 12:15 06:54 08:51 15:09 11:42 - - 05:21 10:51 10:51 13:54 12:12 14:51
Maximum _ 24,2 C 97 % 1017,6 hPa 1,2 l/m 7,8 km/h
S
- - 3 min 9,3 UV-I 831 W/m 18,9 C 24,1 C 17,7 km/h
O-SO
Durchschnitt _ 17,7 C 89 % 1016,6 hPa #4,4 l/m 1,1 km/h SO - #0 min. 0,0 UV-I 0 W/m 15,8 C 17,7 C 3,0 km/h
Schulla EDV